Theta_e
309 309 310 310 309 310 308 308 308 308 308 311 310 311 311 311 310 311 311 308 310 309 310 310 310 309 308 307 305 304 302 300 299 299 298 298 298 298 298 298 298 296 295 295
309 310 310 309 308 309 309 310 311 311 310 308 309 310 309 308 310 310 311 311 310 310 309 308 306 307 307 308 305 302 301 300 299 299 298 297 296 297 298 298 297 296 295 294
312 311 309 309 309 310 309 310 311 311 309 307 306 311 309 307 306 308 309 309 309 309 309 309 303 303 306 305 305 303 301 300 298 298 297 297 296 296 296 296 297 296 295 293
309 309 310 309 309 309 312 308 310 310 310 312 308 312 310 309 309 308 308 308 307 308 308 306 304 300 304 306 304 302 300 299 298 298 297 296 296 295 295 295 296 295 294 293
308 310 309 310 311 308 311 308 308 308 308 309 310 309 311 309 309 307 307 307 307 307 306 306 302 302 305 304 303 301 299 298 298 298 298 297 296 296 296 295 294 295 294 293
307 305 307 308 308 307 307 309 307 306 307 312 310 310 313 308 309 309 308 307 306 305 305 301 301 303 301 301 301 299 298 297 297 297 297 296 296 295 295 293 293 293 293 292
306 306 306 307 309 307 308 309 310 309 309 313 308 308 313 310 308 307 309 305 305 303 302 305 301 299 297 296 297 297 297 296 296 296 296 296 296 296 295 294 292 291 291 291
308 314 306 305 307 308 307 308 311 311 312 314 304 309 313 309 307 306 305 305 303 303 303 300 301 298 297 296 295 295 295 295 296 296 295 296 296 295 294 294 293 292 292 290
307 308 306 305 306 307 306 308 308 311 305 311 311 309 309 307 308 308 306 303 304 303 302 300 299 297 297 296 295 295 295 296 295 295 295 295 294 294 294 294 293 293 292 292
308 309 307 306 306 306 307 307 310 308 312 313 310 310 312 311 311 308 306 304 305 304 302 301 299 297 297 298 297 296 297 296 297 296 295 295 295 295 294 294 293 292 292 291
308 312 314 310 308 313 306 307 307 309 312 314 315 315 313 313 307 306 308 307 306 303 303 302 301 300 299 299 298 298 298 298 297 297 296 295 295 295 293 293 293 292 291 291
312 316 320 317 309 307 307 309 309 311 313 311 313 315 312 313 309 310 311 311 308 303 305 303 301 300 300 299 299 300 300 297 298 297 295 295 294 293 292 293 293 292 291 290
315 316 320 318 313 311 313 314 312 313 311 312 314 314 311 312 312 311 310 306 305 304 303 302 300 300 301 302 301 300 298 298 298 296 295 294 293 293 293 292 291 290 290 290
313 317 319 321 317 314 316 313 312 313 315 314 313 312 311 311 311 311 310 307 304 300 300 299 298 298 299 300 300 299 299 299 298 297 295 294 293 294 293 291 290 290 289 289
312 315 314 314 314 315 316 315 316 316 313 314 315 315 314 313 306 300 302 298 297 296 296 296 298 297 298 299 300 299 299 298 298 297 294 294 294 293 292 291 290 289 288 288
306 308 309 311 308 309 312 312 311 311 309 310 310 310 295 294 293 294 294 292 292 293 294 295 296 296 297 297 297 296 296 296 297 296 295 295 293 292 291 290 289 288 287 286
303 305 306 306 304 304 304 304 304 305 306 306 307 295 293 292 291 291 292 291 292 293 294 295 295 296 297 296 295 295 293 293 293 293 295 294 293 292 290 289 287 285 284 283
302 301 302 302 299 299 298 301 304 303 298 296 295 294 292 291 290 290 293 290 292 293 296 296 297 295 295 294 294 292 291 292 290 291 292 293 292 290 289 287 285 284 283 283
300 301 299 292 291 297 299 297 295 296 296 294 293 293 291 290 289 290 289 290 291 293 293 293 292 293 293 292 293 292 290 291 290 290 288 289 289 288 286 284 283 282 282 281
293 296 294 286 294 298 297 292 294 292 298 293 293 292 291 290 288 287 289 290 292 290 288 288 289 289 290 290 292 291 291 290 290 287 289 289 288 287 284 283 282 281 281 280
281 280 283 279 284 287 289 289 289 287 288 287 292 290 289 289 289 289 289 289 288 286 285 285 285 286 287 289 288 290 290 290 290 290 286 287 286 285 283 282 281 280 279 278
286 280 279 276 280 287 289 288 288 286 287 289 289 289 289 289 287 287 288 286 283 283 282 282 284 284 283 283 285 286 287 289 289 289 289 284 284 283 281 280 279 278 277 276
285 286 282 285 286 290 289 288 289 288 289 288 288 288 288 286 284 285 283 281 281 281 281 280 281 279 279 280 280 280 280 282 287 287 286 286 282 280 280 279 277 276 275 275
287 287 288 286 289 288 288 288 287 287 288 288 287 285 284 283 283 281 280 280 280 279 279 279 278 277 277 276 276 277 277 279 279 282 284 283 281 279 277 277 276 275 274 275
287 287 287 288 288 288 288 288 288 287 285 285 283 282 281 281 280 279 279 278 278 277 277 277 276 275 274 274 273 274 274 274 275 277 281 281 279 278 276 275 275 275 276 276
288 288 288 288 288 288 288 288 285 284 284 281 279 279 279 278 278 277 276 276 276 275 275 274 273 272 271 271 271 271 270 271 272 274 276 280 278 276 275 275 274 276 276 276
Wind_Speed
3 4 9 22 16 14 4 7 9 8 10 2 11 16 16 18 15 21 19 18 21 22 27 30 27 28 30 33 38 41 42 44 43 44 43 40 42 41 40 39 38 36 36 34
1 11 20 7 4 7 8 13 17 18 17 5 17 24 15 12 19 23 26 22 24 21 19 20 11 23 31 36 39 38 42 43 45 44 42 30 35 42 43 41 39 39 36 35
18 10 11 9 8 5 11 11 18 17 6 5 10 21 14 10 9 18 22 19 19 20 22 22 8 19 26 32 36 41 44 45 44 42 38 30 31 26 36 38 40 41 37 35
9 7 12 6 7 14 22 12 14 10 2 10 2 19 4 10 18 16 19 17 13 18 18 15 7 8 27 35 33 34 36 41 42 45 45 41 36 27 35 39 45 42 39 37
9 2 4 7 16 9 12 6 6 3 4 5 4 4 2 5 9 12 11 11 14 15 14 15 7 16 26 28 29 32 34 37 40 46 47 47 36 34 34 39 42 42 41 39
10 3 6 8 4 10 3 3 3 4 3 7 10 7 24 5 7 4 6 10 11 11 14 9 10 14 15 19 26 30 34 36 41 45 45 44 40 38 35 38 39 43 43 42
3 5 3 5 5 2 4 4 4 3 2 10 7 6 26 8 8 8 13 10 11 11 10 17 10 8 9 18 25 30 34 35 39 44 46 46 43 42 41 42 40 41 43 47
4 16 9 6 9 8 7 9 6 7 8 16 7 9 18 8 9 6 6 8 9 11 11 10 11 6 7 16 20 24 30 31 40 43 44 46 46 42 41 42 41 44 47 47
5 10 2 5 4 9 5 6 8 3 0 3 12 17 15 8 6 3 6 7 8 9 13 11 11 3 6 10 18 22 26 29 33 40 38 41 42 40 42 41 42 42 42 44
2 8 3 2 1 4 6 2 1 1 4 11 8 16 16 16 17 6 8 9 9 10 11 10 7 5 6 12 18 22 25 30 34 38 42 42 45 47 46 43 43 44 42 41
4 3 9 1 6 16 1 4 5 1 5 16 19 13 24 28 7 7 12 13 11 8 8 7 7 6 8 10 15 21 27 33 36 40 43 43 48 48 46 46 45 44 42 42
7 5 7 19 6 5 5 8 5 5 10 9 15 16 13 24 10 9 18 21 14 9 10 8 8 3 7 11 17 26 30 36 41 42 40 47 41 41 43 46 49 46 44 42
2 3 10 6 8 3 6 11 13 17 15 21 19 19 11 19 20 18 13 9 9 8 9 11 13 12 11 17 23 28 28 36 39 37 40 37 39 41 46 46 46 46 45 44
6 8 16 13 11 16 17 19 20 13 12 20 19 22 17 22 24 27 16 17 20 19 18 17 15 14 21 26 25 28 32 34 36 37 40 41 44 51 51 44 45 48 47 46
2 14 15 20 16 16 20 24 29 30 26 22 22 24 22 23 14 18 16 19 19 19 18 18 16 15 19 29 35 39 38 35 33 35 35 41 44 43 39 43 46 46 46 46
1 8 13 22 22 17 18 13 15 13 15 21 24 29 20 18 20 22 17 18 20 18 16 15 16 16 16 24 27 32 37 41 35 33 39 41 35 36 41 39 42 43 43 44
6 6 5 20 17 14 15 18 17 21 13 8 8 7 13 18 19 19 15 19 17 16 15 16 16 15 24 29 31 29 34 40 41 33 37 35 36 38 39 38 35 34 38 38
14 13 8 16 17 22 11 2 5 5 8 11 9 8 12 14 16 15 10 18 17 17 15 17 11 21 27 32 33 33 35 33 36 31 28 30 30 32 34 33 35 35 37 39
15 13 6 3 6 12 15 7 6 5 4 9 4 4 7 11 14 7 14 15 16 14 14 18 25 28 27 29 30 33 34 33 28 28 28 27 20 22 23 26 28 28 29 31
4 4 3 3 4 5 2 7 6 7 6 4 4 3 7 9 12 14 14 14 13 16 19 21 24 27 29 30 30 29 28 29 28 34 29 28 24 21 24 24 24 24 29 31
3 3 3 4 4 7 3 7 4 4 7 12 4 5 3 5 7 16 16 14 15 17 22 25 23 23 25 29 34 31 28 26 28 41 35 22 16 18 20 19 22 25 26 24
4 3 3 2 1 9 1 7 1 5 4 6 2 4 7 8 10 12 14 14 14 16 21 22 22 22 25 28 27 28 29 30 31 37 38 26 13 12 14 17 19 21 22 23
3 7 5 8 6 6 16 16 12 6 7 5 5 7 7 8 11 11 12 14 14 17 21 24 20 25 26 25 24 27 32 33 33 30 31 29 23 17 17 18 18 16 18 17
7 12 4 2 12 16 12 11 12 12 10 5 7 7 4 10 11 13 13 15 15 19 20 22 21 24 30 30 30 30 31 29 32 32 30 27 23 19 19 22 25 24 23 19
8 4 7 10 16 16 19 14 15 8 5 6 4 4 9 9 13 12 14 15 14 20 25 24 24 26 32 32 35 32 30 30 32 32 31 25 23 20 19 22 22 26 29 33
9 17 11 14 20 13 14 14 3 3 6 1 6 10 9 9 14 14 16 18 19 21 27 25 26 29 34 33 37 39 31 27 29 31 29 27 21 19 21 20 19 24 24 24
Wind_Direction
220 145 200 223 206 235 174 219 237 252 254 264 258 263 261 271 280 275 264 263 263 263 268 274 259 245 235 232 227 224 217 214 205 203 201 207 209 211 213 216 217 215 214 211
79 219 222 230 196 207 232 255 265 271 265 240 268 268 273 261 257 258 269 268 267 269 276 274 240 230 223 224 224 216 217 210 205 201 200 199 200 210 214 214 215 216 214 212
227 229 218 209 223 231 229 235 254 260 302 244 283 275 244 256 262 259 267 260 270 270 273 278 239 224 223 221 220 218 214 210 203 200 193 194 198 206 211 214 215 214 214 214
244 242 216 187 213 207 264 221 257 259 334 272 6 298 168 250 264 261 262 269 254 266 270 265 241 218 223 230 226 217 207 205 201 201 194 190 193 196 208 210 213 213 213 214
250 190 182 201 232 167 252 207 211 205 203 329 197 273 183 153 263 265 272 258 259 261 259 274 239 235 239 232 220 213 205 204 199 200 201 196 194 200 209 208 213 212 211 214
253 328 173 217 221 190 128 91 78 68 115 272 190 187 290 163 218 255 272 271 267 297 306 303 263 263 243 223 205 201 199 199 202 200 200 201 198 200 199 203 205 210 211 213
298 223 228 165 234 144 142 81 311 316 113 236 150 176 255 279 239 232 277 315 301 296 283 296 270 230 208 193 196 191 194 193 200 202 204 206 206 208 207 207 203 205 208 212
247 287 186 170 191 187 191 169 177 216 261 275 105 247 269 242 269 278 274 271 299 314 319 276 287 265 202 193 198 189 189 194 201 204 207 210 212 210 212 214 210 211 212 214
215 271 258 201 163 154 173 184 226 259 148 292 268 271 290 253 272 332 326 311 300 316 339 314 297 212 202 199 199 202 203 203 212 206 209 214 215 214 215 220 221 221 219 219
308 293 210 35 308 261 190 151 98 283 215 244 225 258 268 278 283 272 312 297 309 344 328 324 314 311 231 214 214 212 215 219 219 222 219 216 220 223 224 225 224 223 223 220
181 179 262 61 211 249 224 251 230 267 195 257 259 245 263 277 241 267 318 315 301 277 307 314 341 334 257 227 221 222 223 227 226 228 227 223 226 224 223 223 227 227 224 221
204 209 242 265 238 234 191 242 233 240 247 240 259 255 256 267 270 288 290 293 298 301 322 314 288 342 277 257 242 238 235 233 235 235 226 228 225 222 222 224 227 227 224 222
129 264 275 278 292 324 215 241 238 245 262 258 262 265 272 295 292 283 283 277 270 286 311 347 354 330 308 286 269 261 252 249 249 236 231 228 228 228 227 225 226 225 223 221
333 255 257 272 282 297 286 284 282 250 257 259 257 271 277 279 283 293 336 9 30 33 20 10 2 354 352 353 341 327 304 277 258 246 236 228 223 229 229 224 222 223 221 218
229 261 274 281 293 290 283 286 284 272 262 251 261 276 278 278 351 3 20 34 22 13 4 354 344 342 350 349 348 346 335 314 285 256 239 235 231 228 223 221 221 220 220 219
282 281 284 273 284 279 287 279 269 279 291 281 287 287 32 19 10 4 20 18 12 1 348 343 336 347 344 340 341 337 334 333 313 278 253 248 239 232 222 217 212 212 212 212
258 262 256 272 278 296 283 264 278 277 350 326 312 38 8 6 2 345 7 359 357 344 339 338 341 343 333 332 332 333 332 335 325 292 273 255 240 231 221 212 208 201 201 201
254 259 262 274 293 274 275 235 97 106 101 74 68 43 10 346 330 322 329 347 346 336 336 337 335 334 330 326 325 328 332 333 338 323 295 272 248 228 221 210 203 197 198 199
222 245 266 225 219 279 291 356 19 13 76 56 25 339 331 332 318 319 356 343 324 317 332 323 321 318 314 319 321 325 330 326 339 346 330 303 266 241 223 204 199 195 193 192
151 208 224 326 259 248 100 330 251 243 237 245 205 320 331 333 337 318 339 325 319 325 324 318 322 320 317 320 319 318 321 325 329 333 341 338 299 248 229 215 203 199 200 195
19 2 184 256 255 285 236 287 289 76 279 323 180 221 252 297 291 294 306 308 317 313 311 314 318 315 312 321 320 312 314 315 319 328 322 329 305 264 246 224 211 202 197 190
152 148 231 52 158 271 309 353 62 225 284 256 224 276 277 269 287 284 291 301 303 306 309 311 308 304 314 309 307 311 308 312 314 318 318 305 289 259 247 232 209 203 196 182
267 206 215 192 215 302 318 295 286 274 237 233 239 245 252 277 283 287 294 292 293 296 300 307 306 306 299 301 305 301 300 313 314 302 299 296 289 257 230 215 207 193 199 193
242 237 216 39 261 267 266 274 282 284 242 244 234 251 248 268 277 282 282 287 294 295 295 296 299 297 298 304 301 295 305 310 313 304 295 285 273 253 239 215 205 194 192 195
229 130 228 257 268 271 272 263 265 244 253 251 251 266 285 276 279 279 280 280 281 282 285 290 291 293 293 302 299 298 301 306 300 298 292 275 257 235 217 220 209 208 212 201
224 241 248 255 264 263 274 277 104 234 283 1 305 295 282 276 283 290 284 283 283 286 290 289 285 287 288 294 294 295 301 296 291 289 287 269 247 230 221 209 218 225 232 225